User: anonymous   Login
Location: Launois
(49.6535°N, 4.5395°E)
Time: 09:34:02
(UTC+00:00)
Language:

Sich 1 Rocket - Orbit

View from above orbital plane
View from above orbital plane
View from above satellite
View from above satellite

Ground track
Ground track

The orbit data is extracted from the following two-line orbital elements,

1 23659U 95046C   24200.71308806  .00000956  00000-0  12459-3 0  9994
2 23659  82.5285  62.7548 0026310  46.3110  21.3920 14.79353053556706
Epoch (UTC): 18 July 2024 17:06:50
Eccentricity: 0.0026310
inclination: 82.5285°
perigee height: 613 km
apogee height: 650 km
right ascension of ascending node: 62.7548°
argument of perigee: 46.3110°
revolutions per day: 14.79353053
mean anomaly at epoch: 21.3920°
orbit number at epoch: 55670

The dashed part of the orbit path shows where the satellite is in the earth's shadow,  

DLR